Regional Weather Roundup
Issued by NWS

Home | Current Version | Previous Version | Text Only | Print | Product List | Glossary On
Versions: 1 2 3 4 5 6 7 8 9 10 11 12 13 14 15 16 17 18 19 20 21 22 23 24 25 26 27 28 29 30 31 32 33 34 35 36 37 38 39 40 41 42 43 44 45 46 47 48 49 50
000
ASUS43 KLMK 241210
RWRKY
KENTUCKY REGIONAL WEATHER ROUNDUP
NATIONAL WEATHER SERVICE LOUISVILLE KY
800 AM EDT FRI OCT 24 2014

NOTE "FAIR" INDICATES FEW OR NO CLOUDS BELOW 12,000 FEET
WITH NO SIGNIFICANT WEATHER AND/OR OBSTRUCTIONS TO VISIBILITY.

KYZ001>023-026-027-061>063-070>075-241300-
WESTERN AND SOUTH CENTRAL KENTUCKY

CITY           SKY/WX    TMP DP  RH WIND       PRES   REMARKS
PADUCAH        CLOUDY    42  41  96 CALM      30.13S FOG
HENDERSON      CLOUDY   N/A N/A N/A CALM      30.12F
OWENSBORO      CLOUDY    46  44  93 CALM      30.13S
HOPKINSVILLE   CLEAR     42  42 100 CALM      30.14R
BOWLING GREEN  FOG       42  40  92 CALM      30.14R VSB 1/4
GLASGOW        CLEAR     40  40 100 CALM      30.13S FOG
$$

KYZ024-025-028>034-038-045-046-053-241300-
NORTH CENTRAL KENTUCKY

CITY           SKY/WX    TMP DP  RH WIND       PRES   REMARKS
LOUISVILLE/SDF PTCLDY    42  40  92 CALM      30.13F
LOUISVILLE/LOU CLEAR     42  39  89 CALM      30.14S
FORT KNOX      CLOUDY    39  38  96 CALM      30.11F
$$

KYZ035>037-039>044-047>052-055>060-089>105-241300-
NORTHEAST KENTUCKY

CITY           SKY/WX    TMP DP  RH WIND       PRES   REMARKS
LEXINGTON      PTCLDY    40  37  89 SE3       30.13S FOG
COVINGTON      PTCLDY    42  39  89 CALM      30.12S
FRANKFORT      CLEAR     37  35  92 CALM      30.12F
$$

KYZ054-064>069-076>088-106>120-241300-
SOUTHEAST KENTUCKY

CITY           SKY/WX    TMP DP  RH WIND       PRES   REMARKS
JACKSON        CLOUDY    43  41  93 CALM      30.13R
LONDON         CLOUDY    44  40  85 CALM      30.13S
SOMERSET       PTCLDY    41  41 100 CALM      30.14F
MIDDLESBORO    FOG       41  41 100 CALM      30.14S VSB 1/2
MONTICELLO     PTSUNNY   41  41 100 CALM      30.14F FOG
$$




USA.gov is the U.S. government's official web portal to all federal, state and local government web resources and services.